| time (UTC) | temp F | wind direction | speed MPH | gust MPH | rain 1hr in | rain 24hr in | rain mn in | humidity % | barometer mb |
| 20260504151027 | 55 | 305 | 9.0 | 21.0 | 0.00 | 0.00 | 0.00 | 47 | 998.3 |
| 20260504150528 | 55 | 326 | 10.0 | 23.0 | 0.00 | 0.00 | 0.00 | 48 | 998.3 |
| 20260504141027 | 54 | 277 | 9.0 | 25.0 | 0.00 | 0.00 | 0.00 | 55 | 998.3 |
| 20260504140528 | 54 | 339 | 11.0 | 26.0 | 0.00 | 0.00 | 0.00 | 55 | 998.2 |
| 20260504130528 | 53 | 331 | 7.0 | 16.0 | 0.00 | 0.00 | 0.00 | 57 | 997.9 |
| 20260504110529 | 55 | 275 | 5.0 | 16.0 | 0.00 | 0.00 | 0.00 | 55 | 995.9 |
| 20260504100529 | 58 | 252 | 6.0 | 17.0 | 0.00 | 0.00 | 0.00 | 43 | 994.9 |
| 20260504081544 | 59 | 179 | 9.0 | 17.0 | 0.00 | 0.00 | 0.00 | 36 | 995.3 |
| 20260504081026 | 59 | 100 | 6.0 | 22.0 | 0.00 | 0.00 | 0.00 | 36 | 995.6 |
| 20260504080526 | 59 | 186 | 8.0 | 24.0 | 0.00 | 0.00 | 0.00 | 35 | 995.7 |
| 20260504050529 | 59 | 236 | 6.0 | 14.0 | 0.00 | 0.00 | 0.00 | 39 | 999.3 |
| 20260504045528 | 59 | 181 | 6.0 | 16.0 | 0.00 | 0.00 | 0.00 | 39 | 999.6 |
| 20260504045028 | 59 | 181 | 6.0 | 16.0 | 0.00 | 0.00 | 0.00 | 38 | 999.7 |
| 20260504044537 | 59 | 225 | 6.0 | 11.0 | 0.00 | 0.00 | 0.00 | 38 | 999.7 |
| 20260504044028 | 59 | 186 | 6.0 | 11.0 | 0.00 | 0.00 | 0.00 | 39 | 999.8 |
| 20260504043527 | 59 | 223 | 6.0 | 14.0 | 0.00 | 0.00 | 0.00 | 38 | 1000.0 |
| 20260504043035 | 59 | 179 | 5.0 | 14.0 | 0.00 | 0.00 | 0.00 | 40 | 1000.1 |
| 20260504042529 | 59 | 193 | 4.0 | 10.0 | 0.00 | 0.00 | 0.00 | 40 | 1000.2 |
| 20260504042030 | 59 | 206 | 4.0 | 11.0 | 0.00 | 0.00 | 0.00 | 39 | 1000.4 |
| 20260504041543 | 59 | 215 | 5.0 | 13.0 | 0.00 | 0.00 | 0.00 | 39 | 1000.4 |
| 20260504041027 | 59 | 175 | 4.0 | 13.0 | 0.00 | 0.00 | 0.00 | 40 | 1000.6 |
| 20260504040529 | 59 | 213 | 5.0 | 11.0 | 0.00 | 0.00 | 0.00 | 40 | 1000.8 |
| 20260504040049 | 58 | 201 | 4.0 | 8.0 | 0.00 | 0.00 | 0.00 | 40 | 1000.9 |
| 20260504035532 | 58 | 205 | 4.0 | 9.0 | 0.00 | 0.00 | 0.00 | 40 | 1001.0 |
| 20260504035029 | 58 | 196 | 4.0 | 10.0 | 0.00 | 0.00 | 0.00 | 40 | 1001.1 |
| 20260504034541 | 58 | 200 | 4.0 | 10.0 | 0.00 | 0.00 | 0.00 | 40 | 1001.2 |
| 20260504034029 | 58 | 213 | 5.0 | 9.0 | 0.00 | 0.00 | 0.00 | 39 | 1001.4 |
| 20260504033529 | 58 | 181 | 4.0 | 8.0 | 0.00 | 0.00 | 0.00 | 39 | 1001.5 |
| 20260504033043 | 59 | 195 | 4.0 | 8.0 | 0.00 | 0.00 | 0.00 | 39 | 1001.6 |
| 20260504032528 | 59 | 185 | 4.0 | 8.0 | 0.00 | 0.00 | 0.00 | 40 | 1001.8 |
| 20260504032028 | 59 | 182 | 3.0 | 10.0 | 0.00 | 0.00 | 0.00 | 40 | 1002.0 |
| 20260504031546 | 59 | 205 | 3.0 | 10.0 | 0.00 | 0.00 | 0.00 | 40 | 1002.2 |
| 20260504031029 | 59 | 185 | 4.0 | 7.0 | 0.00 | 0.00 | 0.00 | 40 | 1002.2 |
| 20260504030526 | 58 | 190 | 3.0 | 7.0 | 0.00 | 0.00 | 0.00 | 43 | 1002.3 |
| 20260504030043 | 58 | 165 | 3.0 | 7.0 | 0.00 | 0.00 | 0.00 | 46 | 1002.4 |
| 20260504025525 | 58 | 204 | 2.0 | 5.0 | 0.00 | 0.00 | 0.00 | 46 | 1002.5 |
| 20260504025024 | 58 | 193 | 2.0 | 5.0 | 0.00 | 0.00 | 0.00 | 48 | 1002.6 |
| 20260504024547 | 59 | 206 | 2.0 | 4.0 | 0.00 | 0.00 | 0.00 | 46 | 1002.6 |
| 20260504024026 | 59 | 179 | 2.0 | 5.0 | 0.00 | 0.00 | 0.00 | 45 | 1002.7 |
| 20260504023525 | 59 | 174 | 2.0 | 5.0 | 0.00 | 0.00 | 0.00 | 44 | 1002.7 |
| 20260504023038 | 59 | 175 | 3.0 | 5.0 | 0.00 | 0.00 | 0.00 | 40 | 1002.8 |
| 20260504022525 | 59 | 191 | 2.0 | 5.0 | 0.00 | 0.00 | 0.00 | 43 | 1002.9 |
| 20260504022026 | 59 | 182 | 1.0 | 4.0 | 0.00 | 0.00 | 0.00 | 48 | 1003.0 |
| 20260504021544 | 60 | 186 | 1.0 | 4.0 | 0.00 | 0.00 | 0.00 | 48 | 1002.9 |
| 20260504021026 | 61 | 163 | 2.0 | 4.0 | 0.00 | 0.00 | 0.00 | 40 | 1003.1 |
| 20260504020524 | 61 | 188 | 2.0 | 4.0 | 0.00 | 0.00 | 0.00 | 35 | 1003.0 |
| 20260504020044 | 61 | 183 | 1.0 | 3.0 | 0.00 | 0.00 | 0.00 | 34 | 1003.1 |
| 20260504015527 | 62 | 0 | 1.0 | 4.0 | 0.00 | 0.00 | 0.00 | 34 | 1003.1 |
| 20260504015025 | 62 | 225 | 1.0 | 4.0 | 0.00 | 0.00 | 0.00 | 33 | 1003.1 |
| 20260504014541 | 63 | 211 | 0.0 | 4.0 | 0.00 | 0.00 | 0.00 | 33 | 1003.2 |
| 20260504014025 | 63 | 220 | 1.0 | 4.0 | 0.00 | 0.00 | 0.00 | 32 | 1003.2 |
| 20260504013526 | 63 | 0 | 1.0 | 4.0 | 0.00 | 0.00 | 0.00 | 32 | 1003.3 |
| 20260504013042 | 64 | 184 | 1.0 | 4.0 | 0.00 | 0.00 | 0.00 | 32 | 1003.3 |
| 20260504012525 | 64 | 229 | 0.0 | 3.0 | 0.00 | 0.00 | 0.00 | 31 | 1003.4 |
| 20260504012025 | 64 | 191 | 1.0 | 3.0 | 0.00 | 0.00 | 0.00 | 31 | 1003.4 |
| 20260504011537 | 65 | 0 | 1.0 | 6.0 | 0.00 | 0.00 | 0.00 | 31 | 1003.5 |
| 20260504011027 | 65 | 202 | 1.0 | 6.0 | 0.00 | 0.00 | 0.00 | 30 | 1003.4 |
| 20260504010527 | 66 | 213 | 1.0 | 6.0 | 0.00 | 0.00 | 0.00 | 30 | 1003.5 |
| 20260504010036 | 66 | 266 | 1.0 | 8.0 | 0.00 | 0.00 | 0.00 | 29 | 1003.6 |
| 20260504005527 | 66 | 262 | 1.0 | 11.0 | 0.00 | 0.00 | 0.00 | 28 | 1003.6 |
| 20260504005026 | 66 | 282 | 3.0 | 11.0 | 0.00 | 0.00 | 0.00 | 28 | 1003.7 |
| 20260504004544 | 67 | 275 | 4.0 | 11.0 | 0.00 | 0.00 | 0.00 | 28 | 1003.6 |
| 20260504004024 | 67 | 293 | 5.0 | 11.0 | 0.00 | 0.00 | 0.00 | 27 | 1003.8 |
| 20260504003525 | 67 | 263 | 2.0 | 12.0 | 0.00 | 0.00 | 0.00 | 27 | 1003.8 |
| 20260504003048 | 68 | 305 | 5.0 | 12.0 | 0.00 | 0.00 | 0.00 | 27 | 1003.8 |
| 20260504002527 | 68 | 193 | 4.0 | 12.0 | 0.00 | 0.00 | 0.00 | 27 | 1003.8 |
| 20260504002026 | 68 | 281 | 5.0 | 12.0 | 0.00 | 0.00 | 0.00 | 27 | 1003.9 |
| 20260504001543 | 68 | 273 | 3.0 | 9.0 | 0.00 | 0.00 | 0.00 | 27 | 1004.0 |
| 20260504001025 | 68 | 244 | 3.0 | 13.0 | 0.00 | 0.00 | 0.00 | 27 | 1003.9 |
| 20260504000528 | 68 | 286 | 7.0 | 13.0 | 0.00 | 0.00 | 0.00 | 26 | 1003.9 |
| 20260504000106 | 69 | 263 | 6.0 | 13.0 | 0.00 | 0.00 | 0.00 | 25 | 1003.9 |
| 20260503235525 | 69 | 319 | 5.0 | 13.0 | 0.00 | 0.00 | 0.00 | 25 | 1004.0 |
| 20260503235027 | 68 | 292 | 7.0 | 14.0 | 0.00 | 0.00 | 0.00 | 25 | 1003.9 |
| 20260503234547 | 68 | 262 | 5.0 | 14.0 | 0.00 | 0.00 | 0.00 | 25 | 1004.1 |
| 20260503234027 | 68 | 304 | 6.0 | 16.0 | 0.00 | 0.00 | 0.00 | 24 | 1004.3 |
| 20260503233528 | 69 | 321 | 6.0 | 16.0 | 0.00 | 0.00 | 0.00 | 24 | 1004.2 |
| 20260503233043 | 69 | 304 | 7.0 | 15.0 | 0.00 | 0.00 | 0.00 | 24 | 1004.3 |
| 20260503232527 | 70 | 289 | 4.0 | 12.0 | 0.00 | 0.00 | 0.00 | 25 | 1004.2 |
| 20260503232026 | 69 | 292 | 5.0 | 12.0 | 0.00 | 0.00 | 0.00 | 25 | 1004.3 |
| 20260503231545 | 69 | 311 | 6.0 | 15.0 | 0.00 | 0.00 | 0.00 | 24 | 1004.4 |
| 20260503231027 | 69 | 307 | 2.0 | 15.0 | 0.00 | 0.00 | 0.00 | 25 | 1004.4 |
| 20260503230530 | 69 | 233 | 6.0 | 15.0 | 0.00 | 0.00 | 0.00 | 25 | 1004.4 |
| 20260503230042 | 69 | 303 | 5.0 | 13.0 | 0.00 | 0.00 | 0.00 | 24 | 1004.5 |
| 20260503225526 | 69 | 298 | 5.0 | 18.0 | 0.00 | 0.00 | 0.00 | 24 | 1004.5 |
| 20260503225029 | 69 | 278 | 7.0 | 18.0 | 0.00 | 0.00 | 0.00 | 24 | 1004.6 |
| 20260503224539 | 69 | 285 | 11.0 | 18.0 | 0.00 | 0.00 | 0.00 | 23 | 1004.7 |
| 20260503224029 | 69 | 302 | 5.0 | 15.0 | 0.00 | 0.00 | 0.00 | 24 | 1004.7 |
| 20260503223529 | 69 | 298 | 7.0 | 15.0 | 0.00 | 0.00 | 0.00 | 24 | 1004.6 |
| 20260503223040 | 69 | 318 | 9.0 | 15.0 | 0.00 | 0.00 | 0.00 | 24 | 1004.6 |
| 20260503222526 | 70 | 288 | 5.0 | 13.0 | 0.00 | 0.00 | 0.00 | 25 | 1004.6 |
| 20260503222026 | 69 | 306 | 7.0 | 13.0 | 0.00 | 0.00 | 0.00 | 25 | 1004.6 |
| 20260503221547 | 70 | 290 | 3.0 | 11.0 | 0.00 | 0.00 | 0.00 | 25 | 1004.7 |
| 20260503221027 | 70 | 288 | 3.0 | 15.0 | 0.00 | 0.00 | 0.00 | 23 | 1004.8 |
| 20260503220527 | 69 | 288 | 4.0 | 15.0 | 0.00 | 0.00 | 0.00 | 24 | 1005.0 |
| 20260503220043 | 69 | 305 | 6.0 | 21.0 | 0.00 | 0.00 | 0.00 | 24 | 1005.2 |
| 20260503215526 | 69 | 308 | 5.0 | 21.0 | 0.00 | 0.00 | 0.00 | 24 | 1005.2 |
| 20260503215029 | 69 | 318 | 8.0 | 21.0 | 0.00 | 0.00 | 0.00 | 23 | 1005.3 |
| 20260503214544 | 69 | 336 | 7.0 | 15.0 | 0.00 | 0.00 | 0.00 | 23 | 1005.2 |
| 20260503214026 | 69 | 300 | 7.0 | 14.0 | 0.00 | 0.00 | 0.00 | 23 | 1005.2 |
| 20260503213530 | 69 | 305 | 7.0 | 14.0 | 0.00 | 0.00 | 0.00 | 23 | 1005.3 |
| 20260503213041 | 69 | 273 | 7.0 | 14.0 | 0.00 | 0.00 | 0.00 | 23 | 1005.4 |
| 20260503212529 | 69 | 292 | 5.0 | 15.0 | 0.00 | 0.00 | 0.00 | 24 | 1005.3 |
| 20260503212030 | 69 | 222 | 5.0 | 15.0 | 0.00 | 0.00 | 0.00 | 24 | 1005.4 |
| 20260503211540 | 69 | 277 | 4.0 | 12.0 | 0.00 | 0.00 | 0.00 | 25 | 1005.5 |
| 20260503211029 | 69 | 317 | 4.0 | 18.0 | 0.00 | 0.00 | 0.00 | 26 | 1005.5 |
| 20260503210527 | 69 | 299 | 6.0 | 18.0 | 0.00 | 0.00 | 0.00 | 25 | 1005.5 |
| 20260503210037 | 69 | 301 | 4.0 | 13.0 | 0.00 | 0.00 | 0.00 | 25 | 1005.6 |
| 20260503205530 | 69 | 217 | 7.0 | 14.0 | 0.00 | 0.00 | 0.00 | 25 | 1005.6 |
| 20260503205029 | 69 | 292 | 7.0 | 14.0 | 0.00 | 0.00 | 0.00 | 25 | 1005.7 |
| 20260503204542 | 70 | 313 | 6.0 | 13.0 | 0.00 | 0.00 | 0.00 | 24 | 1005.7 |
| 20260503204026 | 70 | 325 | 6.0 | 14.0 | 0.00 | 0.00 | 0.00 | 22 | 1005.8 |
| 20260503203527 | 69 | 56 | 5.0 | 15.0 | 0.00 | 0.00 | 0.00 | 23 | 1005.8 |
| 20260503203100 | 70 | 316 | 7.0 | 15.0 | 0.00 | 0.00 | 0.00 | 24 | 1005.9 |
| 20260503202526 | 69 | 34 | 6.0 | 12.0 | 0.00 | 0.00 | 0.00 | 25 | 1005.8 |
| 20260503202025 | 69 | 268 | 4.0 | 16.0 | 0.00 | 0.00 | 0.00 | 26 | 1005.9 |
| 20260503201539 | 69 | 11 | 5.0 | 16.0 | 0.00 | 0.00 | 0.00 | 24 | 1006.1 |
| 20260503201025 | 69 | 290 | 6.0 | 13.0 | 0.00 | 0.00 | 0.00 | 24 | 1006.1 |
| 20260503200525 | 70 | 248 | 5.0 | 12.0 | 0.00 | 0.00 | 0.00 | 23 | 1006.1 |
| 20260503200038 | 70 | 307 | 4.0 | 12.0 | 0.00 | 0.00 | 0.00 | 25 | 1006.2 |
| 20260503195526 | 69 | 292 | 5.0 | 10.0 | 0.00 | 0.00 | 0.00 | 24 | 1006.1 |
| 20260503195026 | 69 | 342 | 3.0 | 13.0 | 0.00 | 0.00 | 0.00 | 25 | 1006.2 |
| 20260503194538 | 69 | 249 | 5.0 | 13.0 | 0.00 | 0.00 | 0.00 | 24 | 1006.2 |
| 20260503194028 | 69 | 296 | 6.0 | 13.0 | 0.00 | 0.00 | 0.00 | 24 | 1006.4 |
| 20260503193527 | 69 | 333 | 3.0 | 11.0 | 0.00 | 0.00 | 0.00 | 24 | 1006.5 |
| 20260503193044 | 68 | 264 | 6.0 | 15.0 | 0.00 | 0.00 | 0.00 | 24 | 1006.4 |
| 20260503192526 | 68 | 352 | 6.0 | 15.0 | 0.00 | 0.00 | 0.00 | 24 | 1006.5 |
| 20260503192025 | 68 | 24 | 6.0 | 15.0 | 0.00 | 0.00 | 0.00 | 23 | 1006.4 |
| 20260503191543 | 68 | 319 | 5.0 | 15.0 | 0.00 | 0.00 | 0.00 | 23 | 1006.6 |
| 20260503191027 | 68 | 302 | 5.0 | 13.0 | 0.00 | 0.00 | 0.00 | 24 | 1006.6 |
| 20260503190525 | 67 | 325 | 5.0 | 15.0 | 0.00 | 0.00 | 0.00 | 24 | 1006.7 |
| 20260503190043 | 68 | 335 | 6.0 | 15.0 | 0.00 | 0.00 | 0.00 | 26 | 1006.8 |
| 20260503185525 | 67 | 337 | 8.0 | 15.0 | 0.00 | 0.00 | 0.00 | 23 | 1006.8 |
| 20260503185026 | 67 | 9 | 4.0 | 9.0 | 0.00 | 0.00 | 0.00 | 24 | 1006.8 |
| 20260503184539 | 67 | 246 | 4.0 | 12.0 | 0.00 | 0.00 | 0.00 | 24 | 1006.9 |
| 20260503184025 | 67 | 297 | 5.0 | 14.0 | 0.00 | 0.00 | 0.00 | 25 | 1007.0 |
| 20260503183525 | 66 | 19 | 4.0 | 14.0 | 0.00 | 0.00 | 0.00 | 25 | 1007.2 |
| 20260503183046 | 67 | 297 | 5.0 | 12.0 | 0.00 | 0.00 | 0.00 | 24 | 1007.2 |
| 20260503182524 | 67 | 288 | 4.0 | 17.0 | 0.00 | 0.00 | 0.00 | 25 | 1007.3 |
| 20260503182024 | 67 | 300 | 4.0 | 17.0 | 0.00 | 0.00 | 0.00 | 25 | 1007.2 |
| 20260503181549 | 66 | 313 | 5.0 | 16.0 | 0.00 | 0.00 | 0.00 | 24 | 1007.2 |
| 20260503181027 | 66 | 264 | 7.0 | 16.0 | 0.00 | 0.00 | 0.00 | 23 | 1007.5 |
| 20260503180527 | 66 | 58 | 6.0 | 16.0 | 0.00 | 0.00 | 0.00 | 23 | 1007.5 |
| 20260503180042 | 66 | 35 | 5.0 | 13.0 | 0.00 | 0.00 | 0.00 | 23 | 1007.4 |
| 20260503175525 | 66 | 310 | 3.0 | 13.0 | 0.00 | 0.00 | 0.00 | 23 | 1007.4 |
| 20260503175025 | 66 | 331 | 6.0 | 13.0 | 0.00 | 0.00 | 0.00 | 22 | 1007.5 |
| 20260503174540 | 65 | 307 | 6.0 | 15.0 | 0.00 | 0.00 | 0.00 | 23 | 1007.5 |
| 20260503174025 | 65 | 286 | 4.0 | 15.0 | 0.00 | 0.00 | 0.00 | 24 | 1007.5 |
| 20260503173525 | 65 | 286 | 7.0 | 13.0 | 0.00 | 0.00 | 0.00 | 24 | 1007.6 |
| 20260503173051 | 65 | 289 | 5.0 | 16.0 | 0.00 | 0.00 | 0.00 | 25 | 1007.6 |
| 20260503172525 | 64 | 49 | 6.0 | 16.0 | 0.00 | 0.00 | 0.00 | 25 | 1007.7 |
| 20260503172024 | 64 | 336 | 7.0 | 16.0 | 0.00 | 0.00 | 0.00 | 25 | 1007.9 |
| 20260503171539 | 65 | 319 | 8.0 | 16.0 | 0.00 | 0.00 | 0.00 | 25 | 1008.1 |
| 20260503171027 | 64 | 326 | 6.0 | 19.0 | 0.00 | 0.00 | 0.00 | 27 | 1008.0 |
| 20260503170525 | 64 | 336 | 6.0 | 19.0 | 0.00 | 0.00 | 0.00 | 26 | 1007.9 |